Location: La Fredeussais
(48.1780°N, 1.3980°W)
Time: 05:26:35
(UTC+00:00)

STARLINK-2695 - Pass Details

Date: 30 November 2021
Orbit: 546 x 548 km, 53.1° (Epoch: 25 January)

Event Time Altitude Azimuth Distance (km) Brightness Sun altitude
Rises 18:21:44 0° 248° (WSW) 2,712 8.6 -20.5°
Reaches altitude 10° 18:23:58 10° 250° (WSW) 1,821 7.4 -20.8°
Maximum altitude 18:28:07 75° 336° (NNW) 573 3.6 -21.5°
Enters shadow 18:28:34 66° 30° (NNE) 604 3.5 -21.6°
